Regional Weather Roundup
Issued by NWS Charleston, WV

Home | Current Version | Previous Version | Text Only | Print | Product List | Glossary Off
Versions: 1 2 3 4 5 6 7 8 9 10 11 12 13 14 15 16 17 18 19 20 21 22 23 24 25 26 27 28 29 30 31 32 33 34 35 36 37 38 39 40 41 42 43 44 45 46 47 48 49 50

344
ASUS41 KRLX 240210
RWRRLX
West Virginia Regional Weather Roundup
National Weather Service Charleston WV
900 PM EST THU NOV 23 2017

Note: "fair" indicates few or no clouds below 12,000 feet with no
significant weather and/or obstructions to visibility.

WVZ003-240300-
Northern Panhandle of West Virginia

CITY           SKY/WX    TMP DP  RH WIND       PRES   REMARKS
WHEELING       CLEAR     34  21  59 SW5       30.03R
$$

WVZ009-240300-
Northwest West Virginia

CITY           SKY/WX    TMP DP  RH WIND       PRES   REMARKS
PARKERSBURG    CLEAR     31  24  75 CALM      30.07R
$$

WVZ006-240300-
Western West Virginia

CITY           SKY/WX    TMP DP  RH WIND       PRES   REMARKS
HUNTINGTON     CLEAR     35  24  64 CALM      30.04S
$$

WVZ015-240300-
West Central West Virginia

CITY           SKY/WX    TMP DP  RH WIND       PRES   REMARKS
CHARLESTON     CLEAR     32  23  69 SE3       30.03F
$$

WVZ022-031-240300-
North Central West Virginia

CITY           SKY/WX    TMP DP  RH WIND       PRES   REMARKS
CLARKSBURG     CLEAR     33  22  63 S3        30.03S
MORGANTOWN     CLEAR     34  20  56 CALM      30.03S
$$

WVZ025-035-042-045-240300-
Southern West Virginia

CITY           SKY/WX    TMP DP  RH WIND       PRES   REMARKS
BECKLEY        CLEAR     32  17  54 S5        30.00F
LOGAN            N/A     39  21  48 CALM      30.02S
BLUEFIELD      CLEAR     37  11  34 W5        30.01S
LEWISBURG      CLEAR     32  19  59 CALM      30.02S
$$

WVZ047-240300-
Northern Mountains of West Virginia

CITY           SKY/WX    TMP DP  RH WIND       PRES   REMARKS
ELKINS         CLEAR     25  19  78 CALM      30.03R
$$

WVZ052-240300-
Eastern Panhandle of West Virginia

CITY           SKY/WX    TMP DP  RH WIND       PRES   REMARKS
MARTINSBURG    CLEAR     29  21  72 CALM      30.03R
PETERSBURG     CLEAR     28  23  82 CALM      30.03S
$$




USA.gov is the U.S. government's official web portal to all federal, state and local government web resources and services.